COSMOS 886 DEB, 19112

Orbit data source: Space-Track

COSMOS 886 DEB, 19112 is space debris in LEO originally from a launch on Mon, 27 Dec 1976 UTC launched from the Tyuratam Missile And Space Complex (TTMTR). Debris objects in space refer to the collection of defunct objects orbiting the Earth. Examples of debris include non-operational satellites, rocket bodies, and fragments generated from explosions, collisions, or faulty payload assembly.

Loading next visibility...
Identifier
19112, 1976-126BZ
Orbit
LEO
Country
Flag of CISCIS
Related business
Manufacturer
Unknown
Mission
Spacecraft
Bus & Motor
Unknown
Mass
Unknown
Launch date (UTC)
1976-12-27 (49 years ago)
Launch vehicle
Unknown
Launch site
Tyuratam Missile And Space Complex (TTMTR)
Object type
Payload
Rocket body
Debris
Shape & HBR
Unknown shape, 0.1 m
Radar Cross Section
Small (<0.1 m²)

Expand to show TLE details & history
Last TLE update: 11 hours ago

TLE from 11 hours ago
0 COSMOS 886 DEB
1 19112U 76126BZ  26130.03384958  .00000625  00000-0  17481-3 0  9995
2 19112  65.8236 107.6215 0897376 107.3664 262.7450 13.23328533555009
Epoch: 2026-05-10T00:48Z
TLE epoch observation values (Epoch: 2026-05-10T00:48:44.603Z)
Latitude
-0.00008°
Longitude
-132.40711°
Altitude
1,318.115 km
Speed
7.129 km/s
True Right ascension
07h 10m 29s
True Declination
0° 00' 00"
Sunlit
Object was in daylight at epoch
Visualization orbit readout
Latitude
Unknown
Longitude
Unknown
Altitude
Unknown
Speed
Unknown
Apparent Right ascension
Unknown
Apparent Declination
Unknown
Sunlit
N/A
Visualization observer readout
Local Sidereal Time
19:46:12
Azimuth
Unknown
Elevation
Unknown
Doppler factor
Unknown
Orbital elements
Apogee altitude
1,847.974 km
Perigee altitude
493.168 km
Semi-major axis
7,548.708 km
Eccentricity
0.08974
Inclination
65.8236°
RAAN
107.6215°
Arg. of periapsis
107.3664°
True anomaly
252.73774°
Mean anomaly
262.745°
Eccentric anomaly
257.72103°
Mean motion
3.30929 °/min
Orbital period
108.78 mins
BSTAR
0.00017481
Loading maneuver chart data...
Computing Atmospheric mass density...
Loading historical data...
Loading historical data...
Loading historical data...
Loading historical data...
Loading historical data...
Loading historical data...
Loading historical data...

Documentation

Showing up to 5 results
|